SV4JYD-13 Weather Reports


Display with metric or nautical units.
time (UTC)temp
F
wind
direction
speed
MPH
gust
MPH
rain 1hr
in
rain 24hr
in
rain mn
in
humidity
%
barometer
mb
20260508054537 62 146 4.0 4.0 0.00 0.00 0.00 99 1017.0
20260508053036 62 146 4.0 4.0 0.00 0.00 0.00 10 1017.0
20260508051537 62 146 4.0 4.0 0.00 0.00 0.00 10 1017.0
20260508050036 62 146 4.0 4.0 0.00 0.00 0.00 10 1016.0
20260508044536 62 146 4.0 4.0 0.00 0.00 0.00 10 1016.0
20260508043036 61 146 4.0 4.0 0.00 0.00 0.00 10 1016.0
20260508041535 61 146 4.0 4.0 0.00 0.00 0.00 10 1016.0
20260508040035 62 146 4.0 4.0 0.00 0.00 0.00 10 1016.0
20260508034535 61 146 4.0 4.0 0.00 0.00 0.00 10 1016.0
20260508033034 61 146 4.0 4.0 0.00 0.00 0.00 10 1016.0
20260508031534 62 146 4.0 4.0 0.00 0.00 0.00 10 1016.0
20260508030034 62 146 4.0 4.0 0.00 0.00 0.00 10 1016.0
20260508024534 61 146 4.0 4.0 0.00 0.00 0.00 10 1016.0
20260508023033 61 146 4.0 4.0 0.00 0.00 0.00 10 1016.0
20260508021533 60 146 4.0 4.0 0.00 0.00 0.00 10 1016.0
20260508014533 60 146 4.0 4.0 0.00 0.00 0.00 10 1016.0
20260508013033 61 146 4.0 4.0 0.00 0.00 0.00 10 1017.0
20260508011532 62 146 4.0 4.0 0.00 0.00 0.00 10 1017.0
20260508010032 62 146 4.0 4.0 0.00 0.00 0.00 10 1017.0
20260508004532 61 146 4.0 4.0 0.00 0.00 0.00 10 1017.0
20260508003032 61 146 4.0 4.0 0.00 0.00 0.00 10 1017.0
20260508001531 61 146 4.0 4.0 0.00 0.00 0.00 10 1017.0
20260508000031 61 146 4.0 4.0 0.00 0.00 0.00 10 1017.0
20260507234531 61 146 4.0 4.0 0.00 0.00 0.00 10 1017.0
20260507233030 61 146 4.0 4.0 0.00 0.00 0.00 10 1017.0
20260507231530 61 146 4.0 4.0 0.00 0.00 0.00 99 1018.0
20260507230030 61 146 4.0 4.0 0.00 0.00 0.00 98 1017.0
20260507224530 60 146 4.0 4.0 0.00 0.00 0.00 96 1017.0
20260507223029 61 146 4.0 4.0 0.00 0.00 0.00 98 1018.0
20260507221529 61 146 4.0 4.0 0.00 0.00 0.00 10 1018.0
20260507220029 62 146 4.0 4.0 0.00 0.00 0.00 99 1018.0
20260507214529 62 146 4.0 4.0 0.00 0.00 0.00 97 1018.0
20260507213028 63 146 4.0 4.0 0.00 0.00 0.00 97 1018.0
20260507211528 63 146 4.0 4.0 0.00 0.00 0.00 98 1018.0
20260507210028 63 146 4.0 4.0 0.00 0.00 0.00 10 1018.0
20260507204528 64 146 4.0 4.0 0.00 0.00 0.00 10 1018.0
20260507203027 65 146 4.0 4.0 0.00 0.00 0.00 10 1018.0
20260507201527 65 146 4.0 4.0 0.00 0.00 0.00 10 1018.0
20260507200027 65 146 4.0 4.0 0.00 0.00 0.00 99 1018.0
20260507194527 64 146 4.0 4.0 0.00 0.00 0.00 97 1018.0
20260507193026 65 146 4.0 4.0 0.00 0.00 0.00 97 1018.0
20260507191526 65 146 4.0 4.0 0.00 0.00 0.00 97 1018.0
20260507190026 66 146 4.0 4.0 0.00 0.00 0.00 97 1017.0
20260507184526 66 146 4.0 4.0 0.00 0.00 0.00 94 1017.0
20260507183025 66 146 4.0 4.0 0.00 0.00 0.00 94 1017.0
20260507181525 67 146 4.0 4.0 0.00 0.00 0.00 93 1017.0
20260507180025 67 146 4.0 4.0 0.00 0.00 0.00 92 1017.0
20260507174525 68 146 4.0 4.0 0.00 0.00 0.00 90 1017.0
20260507173024 69 146 4.0 4.0 0.00 0.00 0.00 87 1017.0
20260507171524 69 146 4.0 4.0 0.00 0.00 0.00 86 1017.0
20260507170024 68 146 4.0 4.0 0.00 0.00 0.00 85 1017.0
20260507164524 69 146 4.0 4.0 0.00 0.00 0.00 85 1017.0
20260507163023 71 164 4.0 5.0 0.00 0.00 0.00 81 1017.0
20260507161523 72 164 4.0 5.0 0.00 0.00 0.00 80 1017.0
20260507160023 71 164 4.0 5.0 0.00 0.00 0.00 79 1017.0
20260507154523 72 164 4.0 5.0 0.00 0.00 0.00 78 1017.0
20260507153022 73 309 4.0 5.0 0.00 0.00 0.00 74 1017.0
20260507151522 73 309 4.0 5.0 0.00 0.00 0.00 74 1017.0
20260507150022 72 309 4.0 5.0 0.00 0.00 0.00 71 1017.0
20260507144521 71 309 4.0 5.0 0.00 0.00 0.00 70 1017.0
20260507143021 72 309 4.0 5.0 0.00 0.00 0.00 65 1017.0
20260507141521 71 309 4.0 5.0 0.00 0.00 0.00 61 1017.0
20260507140021 71 309 4.0 5.0 0.00 0.00 0.00 63 1017.0
20260507134521 72 309 4.0 5.0 0.00 0.00 0.00 63 1017.0
20260507133020 71 309 4.0 5.0 0.00 0.00 0.00 59 1017.0
20260507131520 72 309 4.0 5.0 0.00 0.00 0.00 59 1018.0
20260507130020 72 309 4.0 5.0 0.00 0.00 0.00 61 1018.0
20260507123019 72 309 4.0 5.0 0.00 0.00 0.00 62 1018.0
20260507121519 70 309 4.0 5.0 0.00 0.00 0.00 62 1018.0
20260507120018 70 309 4.0 5.0 0.00 0.00 0.00 64 1019.0
20260507114518 70 309 4.0 5.0 0.00 0.00 0.00 66 1019.0
20260507113018 70 309 4.0 5.0 0.00 0.00 0.00 69 1018.0
20260507111518 71 309 4.0 5.0 0.00 0.00 0.00 69 1018.0
20260507110017 71 309 4.0 5.0 0.00 0.00 0.00 70 1018.0
20260507104517 71 309 4.0 5.0 0.00 0.00 0.00 72 1018.0
20260507103017 71 309 4.0 5.0 0.00 0.00 0.00 70 1018.0
20260507101517 71 309 4.0 5.0 0.00 0.00 0.00 72 1018.0
20260507100016 72 309 4.0 5.0 0.00 0.00 0.00 79 1018.0
20260507094516 73 309 4.0 5.0 0.00 0.00 0.00 79 1018.0
20260507093016 68 280 1.0 1.0 0.00 0.00 0.00 75 1018.0
20260507091515 68 280 1.0 1.0 0.00 0.00 0.00 73 1018.0
20260507090015 68 280 1.0 1.0 0.00 0.00 0.00 76 1018.0
20260507084515 68 280 1.0 1.0 0.00 0.00 0.00 79 1018.0
20260507083015 68 280 1.0 1.0 0.00 0.00 0.00 83 1018.0
20260507081514 68 280 1.0 1.0 0.00 0.00 0.00 83 1018.0
20260507080014 68 280 1.0 1.0 0.00 0.00 0.00 84 1018.0
20260507074514 68 280 1.0 1.0 0.00 0.00 0.00 85 1018.0
20260507073013 68 280 2.0 1.0 0.00 0.00 0.00 85 1018.0
20260507071513 68 280 3.0 2.0 0.00 0.00 0.00 85 1018.0
20260507070014 63 292 1.0 1.0 0.00 0.00 0.00 10 1018.0
20260507064513 63 292 1.0 1.0 0.00 0.00 0.00 10 1018.0
20260507063012 63 292 1.0 1.0 0.00 0.00 0.00 10 1017.0
20260507061512 64 292 1.0 1.0 0.00 0.00 0.00 10 1017.0
20260507060012 65 292 2.0 1.0 0.00 0.00 0.00 10 1017.0